Weather History for KATT - May, 2013

Change the Weather History Date:

Monday, May 6, 2013

  Actual Average Record
Temperature  
Mean Temperature 63 °F 74 °F  
Max Temperature 76 °F 84 °F 99 °F (1984)
Min Temperature 50 °F 64 °F 46 °F (1917)
Degree Days  
Heating Degree Days 2 0  
Month to date heating degree days 12 0  
Since 1 July heating degree days 1251 1537  
Cooling Degree Days 0 9  
Month to date cooling degree days 15 52  
Year to date cooling degree days 287 304  
Growing Degree Days 12 (Base 50)    
Moisture  
Dew Point 45 °F    
Average Humidity 56    
Maximum Humidity 77    
Minimum Humidity 35    
Precipitation  
Precipitation 0.00 in 0.13 in 4.01 in (1904)
Month to date precipitation 0.00 0.75  
Year to date precipitation 7.65 9.84  
Snow  
Snow 0.00 in - - ()
Month to date snowfall 0.0  
Since 1 July snowfall T  
Snow Depth 0.00 in    
Sea Level Pressure  
Sea Level Pressure 30.07 in    
Wind  
Wind Speed 2 mph (SSE)    
Max Wind Speed 7 mph    
Max Gust Speed 11 mph    
Visibility 10 miles    
Events      
T = Trace of Precipitation, MM = Missing Value Source: NWS Daily Summary

Daily Weather History Graph

Daily Weather History Graph

Search for Another Location

Airport or City:

Trip Planner

Search our weather history database for the weather conditions in past years. The results will help you decide how hot, cold, wet, or windy it might be!

Date:

Astronomy

May. 06, 2013 Rise Set
Actual Time 6:43 AM CDT 8:12 PM CDT
Civil Twilight 6:17 AM CDT 8:38 PM CDT
Nautical Twilight 5:46 AM CDT 9:09 PM CDT
Astronomical Twilight 5:14 AM CDT 9:41 PM CDT
Moon 4:32 AM CDT (5/6) 5:24 PM CDT (5/6)
Length of Visible Light 14h 20m
Length of Day
13h 29m
Waning Crescent, 11% of the Moon is Illuminated
May 6
Waning Crescent
May 9
New
May 17
First Quarter
May 24
Full
May 31
Last Quarter

Hourly Weather History & Observations

Time (CDT) Temp. Dew Point Humidity Pressure Visibility Wind Dir Wind Speed Gust Speed Precip Events Conditions
12:51 AM 57.9 °F 43.0 °F 58% 30.09 in 10.0 mi Calm Calm - N/A   Clear
1:51 AM 57.0 °F 44.1 °F 62% 30.08 in 10.0 mi Calm Calm - N/A   Clear
2:51 AM 54.0 °F 44.1 °F 69% 30.07 in 10.0 mi Calm Calm - N/A   Clear
3:51 AM 53.1 °F 44.1 °F 71% 30.08 in 10.0 mi Calm Calm - N/A   Clear
4:51 AM 52.0 °F 44.1 °F 74% 30.08 in 10.0 mi NNE 3.5 mph - N/A   Clear
5:51 AM 54.0 °F 44.1 °F 69% 30.08 in 10.0 mi Calm Calm - N/A   Clear
6:51 AM 53.1 °F 44.1 °F 71% 30.09 in 10.0 mi Calm Calm - N/A   Clear
7:51 AM 54.0 °F 46.0 °F 75% 30.11 in 10.0 mi Calm Calm - N/A   Clear
8:51 AM 62.1 °F 43.0 °F 50% 30.12 in 10.0 mi ESE 3.5 mph - N/A   Clear
9:51 AM 66.0 °F 44.1 °F 45% 30.14 in 10.0 mi Variable 3.5 mph - N/A   Clear
10:51 AM 69.1 °F 44.1 °F 40% 30.15 in 10.0 mi South 5.8 mph - N/A   Clear
11:51 AM 72.0 °F 45.0 °F 38% 30.13 in 10.0 mi Variable 4.6 mph - N/A   Clear
12:51 PM 72.0 °F 45.0 °F 38% 30.08 in 10.0 mi SSE 3.5 mph - N/A   Clear
1:51 PM 72.0 °F 44.1 °F 37% 30.08 in - WSW 4.6 mph - N/A   Clear
2:51 PM 73.0 °F 45.0 °F 37% 30.07 in - Variable 3.5 mph - N/A   Clear
3:51 PM 73.0 °F 45.0 °F 37% 30.03 in - Calm Calm - N/A   Partly Cloudy
4:51 PM 72.0 °F 45.0 °F 38% 30.03 in - Calm Calm - N/A   Overcast
5:51 PM 73.9 °F 46.0 °F 37% 30.00 in - Calm Calm - N/A   Mostly Cloudy
6:51 PM 73.9 °F 46.9 °F 38% 30.01 in - Variable 3.5 mph - N/A   Clear
7:51 PM 71.1 °F 46.9 °F 42% 30.01 in - Calm Calm - N/A   Clear
8:51 PM 66.9 °F 48.0 °F 51% 30.03 in - Calm Calm - N/A   Clear
9:51 PM 64.0 °F 48.9 °F 58% 30.04 in 10.0 mi Calm Calm - N/A   Clear
10:51 PM 62.1 °F 48.9 °F 62% 30.03 in 10.0 mi Calm Calm - N/A   Clear
11:51 PM 61.0 °F 48.9 °F 64% 30.04 in 10.0 mi Calm Calm - N/A   Clear